Wind_Speed
97 99 100 101 101 102 103 103 103 101 100 100 100 98 96 94 93 92 90 89 87 85 83 82 80 77 75
103 103 102 102 105 105 104 106 106 106 107 105 103 103 103 101 100 98 96 94 93 92 89 86 85 81 80
108 111 112 111 110 109 110 110 108 109 111 112 112 111 108 106 105 104 102 101 98 97 95 92 90 88 86
113 113 114 115 116 117 116 116 114 112 112 114 115 115 116 114 112 110 109 106 105 103 101 98 96 94 91
103 104 106 108 111 115 118 120 119 118 119 118 118 118 117 118 118 117 116 114 111 109 107 104 102 100 98
88 87 85 87 90 96 103 107 115 116 121 122 122 121 122 122 121 120 121 121 120 117 114 111 108 106 104
79 78 80 80 84 88 89 94 99 101 104 112 115 123 125 125 128 128 126 123 123 124 122 119 116 113 110
75 74 72 71 74 77 80 83 86 89 91 99 99 102 109 117 124 129 132 132 129 127 127 127 125 122 119
68 68 68 68 70 74 78 80 83 82 82 87 88 92 94 98 103 112 125 132 134 134 133 131 130 129 128
64 65 65 68 70 72 74 76 76 78 75 77 78 79 86 85 87 91 98 111 122 131 135 136 135 133 133
61 63 65 66 68 67 68 69 70 72 67 66 69 70 72 76 70 72 81 87 98 108 119 128 134 138 137
61 61 62 62 61 62 63 64 65 65 60 57 64 64 64 65 66 60 65 72 80 88 96 105 115 128 138
59 57 56 57 58 57 56 58 59 57 55 53 57 55 57 59 57 54 52 56 65 72 79 87 96 105 119
54 52 53 53 51 51 51 51 53 49 47 47 50 52 50 50 50 46 47 45 53 58 65 72 79 88 99
49 49 47 47 45 45 45 45 46 43 41 42 45 47 46 45 45 45 43 43 45 51 59 65 69 74 82
44 43 42 42 42 40 40 40 40 38 38 38 41 45 47 46 48 49 47 48 50 52 57 60 61 62 70
39 39 38 37 37 36 35 37 37 36 36 39 42 45 46 48 42 51 54 50 52 50 53 56 58 55 61
Wind_Direction
266 265 263 261 259 258 259 259 259 259 259 258 256 254 253 251 249 248 247 246 246 245 245 247 247 247 247
265 265 264 263 261 259 257 255 256 257 257 256 256 255 254 253 252 250 248 247 246 245 245 246 245 245 246
267 265 264 263 261 260 258 256 255 254 254 254 254 253 253 253 252 251 250 249 248 246 245 245 245 245 244
270 267 265 264 263 262 260 259 257 255 252 252 252 252 251 251 251 251 250 249 249 247 246 245 244 245 244
272 270 268 267 265 264 262 259 257 256 254 251 251 251 250 251 250 248 248 248 248 247 247 245 245 243 243
267 266 265 265 265 264 263 263 260 259 257 253 252 250 250 250 249 249 248 247 247 246 246 246 245 244 243
266 266 266 265 265 264 264 263 261 260 260 257 255 252 250 248 248 249 249 247 246 245 244 245 245 244 243
266 265 265 264 265 267 267 266 264 264 264 261 257 255 252 251 249 247 246 246 246 245 245 243 243 243 243
267 266 265 266 268 269 269 271 269 268 267 265 262 262 257 254 251 249 248 245 244 244 244 243 242 241 242
267 268 269 270 271 272 272 272 272 271 269 268 265 265 261 256 255 252 250 248 246 244 242 242 241 241 240
268 269 271 272 272 273 273 274 273 271 270 269 268 266 265 262 255 256 253 249 247 246 244 242 241 240 238
271 272 272 271 272 271 272 272 273 275 273 270 269 268 266 263 261 254 252 251 249 246 246 245 242 240 239
273 273 271 271 270 271 272 273 272 271 271 269 269 268 267 266 262 257 251 249 249 248 247 245 244 241 239
271 273 273 274 275 275 272 270 270 269 268 267 266 266 263 263 263 257 256 247 246 248 248 246 245 244 241
273 273 274 275 274 272 271 270 270 269 266 263 262 263 263 264 265 264 260 257 251 249 249 248 247 246 245
272 273 273 272 273 273 272 271 270 269 266 262 259 260 264 264 270 271 267 264 259 253 253 252 248 248 249
269 269 270 271 271 271 270 270 270 268 265 265 267 269 268 266 263 269 271 266 265 261 259 258 253 246 248
Height
5546 5550 5554 5556 5561 5563 5566 5568 5571 5575 5581 5586 5592 5600 5606 5613 5620 5627 5634 5641 5648 5655 5661 5666 5674 5681 5686
5515 5517 5520 5523 5526 5529 5535 5539 5542 5546 5550 5556 5562 5568 5576 5584 5590 5598 5606 5614 5622 5630 5637 5647 5651 5658 5665
5483 5483 5486 5488 5490 5493 5496 5504 5511 5517 5520 5522 5528 5536 5544 5551 5559 5568 5576 5585 5597 5602 5611 5620 5628 5635 5642
5444 5448 5449 5451 5450 5454 5460 5464 5474 5482 5485 5489 5494 5499 5509 5519 5530 5537 5544 5554 5563 5572 5582 5592 5602 5610 5618
5407 5411 5414 5413 5413 5414 5417 5423 5436 5440 5443 5449 5462 5472 5478 5481 5491 5501 5510 5520 5531 5540 5550 5561 5572 5582 5592
5376 5380 5384 5381 5381 5379 5380 5383 5396 5399 5391 5412 5421 5432 5441 5448 5455 5462 5472 5483 5494 5507 5518 5528 5540 5551 5562
5351 5355 5355 5358 5353 5351 5351 5349 5359 5358 5356 5374 5383 5387 5400 5407 5412 5424 5434 5444 5455 5468 5482 5494 5506 5518 5530
5324 5328 5328 5333 5327 5326 5323 5322 5329 5328 5329 5331 5346 5345 5355 5360 5373 5382 5391 5403 5416 5429 5442 5455 5468 5481 5494
5303 5303 5305 5307 5306 5302 5300 5298 5299 5302 5305 5303 5313 5305 5316 5323 5336 5341 5350 5362 5373 5383 5396 5411 5427 5442 5456
5282 5282 5281 5283 5284 5280 5278 5273 5274 5274 5281 5280 5279 5275 5278 5295 5301 5307 5313 5320 5328 5340 5352 5366 5382 5397 5415
5263 5262 5262 5262 5261 5260 5258 5255 5252 5251 5260 5260 5255 5255 5252 5262 5274 5281 5278 5289 5291 5299 5310 5324 5340 5350 5370
5245 5245 5244 5243 5242 5241 5239 5238 5234 5234 5241 5242 5232 5233 5235 5238 5246 5256 5256 5260 5263 5270 5277 5286 5298 5309 5323
5225 5227 5226 5225 5224 5224 5224 5221 5218 5220 5221 5223 5216 5219 5217 5217 5225 5232 5234 5240 5240 5244 5250 5256 5261 5268 5279
5209 5210 5209 5209 5209 5208 5206 5206 5202 5206 5207 5206 5203 5201 5203 5204 5205 5215 5215 5222 5222 5225 5225 5225 5232 5238 5247
5194 5195 5195 5195 5195 5193 5191 5191 5188 5191 5193 5193 5190 5188 5189 5191 5192 5196 5200 5203 5207 5206 5202 5206 5212 5219 5225
5182 5182 5182 5181 5181 5181 5179 5178 5177 5179 5179 5180 5179 5178 5178 5181 5180 5180 5184 5184 5185 5187 5186 5187 5197 5205 5204
5171 5171 5170 5170 5169 5169 5169 5168 5167 5167 5167 5167 5167 5165 5164 5164 5175 5166 5162 5168 5165 5170 5171 5171 5174 5187 5184